Weather History for Alexandria, MN

Change the Weather History Date:

Wednesday, October 26, 2011

  Actual Average Record
Temperature  
Mean Temperature 42 °F -  
Max Temperature 48 °F 54 °F 81 °F (1955)
Min Temperature 36 °F 35 °F 18 °F (1976)
Degree Days  
Heating Degree Days 24    
Moisture  
Dew Point 36 °F    
Average Humidity 84    
Maximum Humidity 93    
Minimum Humidity 61    
Precipitation  
Precipitation 0.01 in - - ()
Sea Level Pressure  
Sea Level Pressure 30.10 in    
Wind  
Wind Speed 4 mph (NNE)    
Max Wind Speed 7 mph    
Max Gust Speed -    
Visibility 10 miles    
Events Rain    
Averages and records for this station are not official NWS values.
T = Trace of Precipitation, MM = Missing Value Source: NWS Daily Summary

Daily Weather History Graph

Daily Weather History Graph

Search for Another Location

Airport:

Trip Planner

Search our weather history database for the weather conditions in past years. The results will help you decide how hot, cold, wet, or windy it might be!

Date:

Astronomy

Oct. 26, 2011 Rise Set
Actual Time 7:53 AM CDT 6:17 PM CDT
Civil Twilight 7:22 AM CDT 6:47 PM CDT
Nautical Twilight 6:47 AM CDT 7:22 PM CDT
Astronomical Twilight 6:12 AM CDT 7:57 PM CDT
Moon 7:44 AM CDT (10/26) 5:56 PM CDT (10/26)
Length of Visible Light 11h 25m
Length of Day
10h 24m
Waning Crescent, 0% of the Moon is Illuminated
Oct 26
Waning Crescent
Oct 26
New
Nov 2
First Quarter
Nov 10
Full
Nov 18
Last Quarter

Hourly Weather History & Observations

Time (CDT) Temp. Windchill Dew Point Humidity Pressure Visibility Wind Dir Wind Speed Gust Speed Precip Events Conditions
12:43 AM 39.2 °F 35.9 °F 37.4 °F 93% 30.06 in 10.0 mi ESE 4.6 mph - N/A   Overcast
12:53 AM 39.9 °F 37.8 °F 37.0 °F 89% 30.10 in 10.0 mi SE 3.5 mph - N/A   Overcast
1:27 AM 39.2 °F 35.9 °F 37.4 °F 93% 30.06 in 10.0 mi ESE 4.6 mph - N/A   Overcast
1:53 AM 39.9 °F 37.8 °F 37.0 °F 89% 30.11 in 10.0 mi SE 3.5 mph - N/A   Overcast
2:04 AM 39.2 °F 37.0 °F 37.4 °F 93% 30.06 in 10.0 mi East 3.5 mph - N/A   Overcast
2:30 AM 39.2 °F 35.9 °F 37.4 °F 93% 30.05 in 10.0 mi East 4.6 mph - N/A   Overcast
2:53 AM 39.9 °F - 37.0 °F 89% 30.10 in 10.0 mi Calm Calm - N/A   Overcast
3:41 AM 39.2 °F 37.0 °F 37.4 °F 93% 30.07 in 10.0 mi South 3.5 mph - N/A   Overcast
3:53 AM 39.9 °F 37.8 °F 37.0 °F 89% 30.11 in 10.0 mi SSW 3.5 mph - N/A   Overcast
4:53 AM 39.9 °F 37.8 °F 37.0 °F 89% 30.10 in 10.0 mi SSE 3.5 mph - N/A   Overcast
5:53 AM 39.2 °F 35.9 °F 37.4 °F 93% 30.07 in 10.0 mi East 4.6 mph - N/A   Overcast
6:53 AM 39.2 °F 35.9 °F 37.4 °F 93% 30.08 in 10.0 mi East 4.6 mph - N/A   Overcast
7:53 AM 39.2 °F 35.9 °F 37.4 °F 93% 30.08 in 10.0 mi SE 4.6 mph - N/A   Overcast
8:53 AM 39.0 °F - 37.0 °F 93% 30.14 in 10.0 mi Calm Calm - N/A   Overcast
9:31 AM 39.2 °F 35.9 °F 37.4 °F 93% 30.09 in 10.0 mi ENE 4.6 mph - N/A   Overcast
9:53 AM 39.9 °F 37.8 °F 37.0 °F 89% 30.14 in 10.0 mi North 3.5 mph - 0.00 in Rain Light Rain
10:06 AM 39.2 °F - 37.4 °F 93% 30.10 in 10.0 mi Calm Calm - 0.00 in   Overcast
10:26 AM 39.2 °F - 37.4 °F 93% 30.11 in 9.0 mi Calm Calm - 0.01 in Rain Light Rain
10:39 AM 41.0 °F - 37.4 °F 87% 30.11 in 10.0 mi Calm Calm - 0.01 in   Overcast
10:53 AM 41.0 °F 39.0 °F 39.0 °F 93% 30.16 in 10.0 mi North 3.5 mph - 0.01 in   Overcast
11:33 AM 42.8 °F 41.1 °F 39.2 °F 87% 30.12 in 10.0 mi North 3.5 mph - N/A   Overcast
11:53 AM 42.1 °F 37.7 °F 39.0 °F 89% 30.16 in 10.0 mi NNE 6.9 mph - N/A   Overcast
12:18 PM 42.8 °F 38.6 °F 39.2 °F 87% 30.12 in 10.0 mi NNE 6.9 mph - N/A   Overcast
12:53 PM 45.0 °F 41.8 °F 37.9 °F 76% 30.16 in 10.0 mi North 5.8 mph - N/A   Scattered Clouds
1:27 PM 44.6 °F 41.4 °F 37.4 °F 76% 30.11 in 10.0 mi North 5.8 mph - N/A   Mostly Cloudy
1:40 PM 44.6 °F 40.7 °F 35.6 °F 71% 30.11 in 10.0 mi NW 6.9 mph - N/A   Scattered Clouds
1:53 PM 46.9 °F - 36.0 °F 66% 30.14 in 10.0 mi NNW 5.8 mph - N/A   Mostly Cloudy
2:53 PM 46.4 °F 42.9 °F 33.8 °F 62% 30.09 in 10.0 mi NW 6.9 mph - N/A   Scattered Clouds
3:53 PM 46.9 °F - 34.0 °F 61% 30.11 in 10.0 mi NNW 4.6 mph - N/A   Mostly Cloudy
4:53 PM 46.0 °F 43.9 °F 33.1 °F 61% 30.10 in 10.0 mi WNW 4.6 mph - N/A   Mostly Cloudy
5:53 PM 43.0 °F 40.3 °F 33.1 °F 68% 30.09 in 10.0 mi West 4.6 mph - N/A   Clear
6:53 PM 41.0 °F 38.0 °F 33.1 °F 73% 30.10 in 10.0 mi West 4.6 mph - N/A   Mostly Cloudy
7:53 PM 42.1 °F 40.2 °F 34.0 °F 73% 30.10 in 10.0 mi West 3.5 mph - N/A   Overcast
8:53 PM 41.0 °F 39.0 °F 33.1 °F 73% 30.10 in 10.0 mi WNW 3.5 mph - N/A   Overcast
9:53 PM 39.0 °F 35.7 °F 35.1 °F 86% 30.10 in 10.0 mi NNE 4.6 mph - N/A   Overcast
10:53 PM 37.9 °F - 34.0 °F 86% 30.10 in 10.0 mi Calm Calm - N/A   Mostly Cloudy
11:53 PM 36.0 °F - 33.1 °F 89% 30.09 in 10.0 mi Calm Calm - N/A   Clear